Tracking 19792 objects as of 15-Jul-2019
HD Live streaming from Space Station
objects crossing your sky now

WESTFORD NEEDLES

Track WESTFORD NEEDLES now!
10-day predictions
WESTFORD NEEDLES is classified as:


NORAD ID: 20504
Int'l Code: 1963-014FD
Perigee: 1,047.7 km
Apogee: 5,974.3 km
Inclination: 85.3 °
Period: 162.9 minutes
Semi major axis: 9882 km
RCS: 0.1216 m2 (medium)
Launch date: May 9, 1963
Source: United States (US)
Launch site: AIR FORCE WESTERN TEST RANGE (AFWTR)
aabbcc
Your satellite tracking list
Your tracking list is empty




NASA's NSSDC Master Catalog

Two Line Element Set (TLE):
1 20504U 63014FD  19195.43921928  .00000699  00000-0  81478-2 0  9992
2 20504  85.2607 185.3751 2492740 186.6025 169.5061  8.83761058838426
Source of the keplerian elements: AFSPC